Regional Weather Roundup
Issued by NWS

Home | Current Version | Previous Version | Text Only | Print | Product List | Glossary On
Versions: 1 2 3 4 5 6 7 8 9 10 11 12 13 14 15 16 17 18 19 20 21 22 23 24 25 26 27
000
ASUS44 KBMX 101010
RWRAL

ALABAMA REGIONAL WEATHER ROUNDUP
NATIONAL WEATHER SERVICE BIRMINGHAM AL
400 AM CST SAT DEC 10 2016

NOTE: "FAIR" INDICATES FEW OR NO CLOUDS BELOW 12,000 FEET
WITH NO SIGNIFICANT WEATHER AND/OR OBSTRUCTIONS TO VISIBILITY.

THE REMARK "TC" DENOTES TEMPERATURE IN DEGREES CELSIUS.

ALZ001>011-014-016>018-020-101100-
NORTH ALABAMA

CITY           SKY/WX    TMP DP  RH WIND       PRES   REMARKS
MUSCLE SHOALS  CLEAR     24  18  77 CALM      30.57S
HUNTSVILLE     CLEAR     25  19  78 CALM      30.54S
DECATUR        CLEAR     23  21  92 N5        30.55F WCI  17
HALEYVILLE     FAIR      21  19  92 CALM      30.54S
GADSDEN        CLEAR     22  19  89 CALM      30.55S
$$

ALZ012-013-022-023-030>036-040>044-101100-
WEST CENTRAL ALABAMA

CITY           SKY/WX    TMP DP  RH WIND       PRES   REMARKS
TUSCALOOSA     CLEAR     27  21  78 N3        30.56F
$$

ALZ015-024>027-033>036-040>044-101100-
CENTRAL ALABAMA

CITY           SKY/WX    TMP DP  RH WIND       PRES   REMARKS
BIRMINGHAM     CLEAR     25  22  88 CALM      30.55S
MONTGOMERY     CLEAR     32  19  58 CALM      30.53R
SHELBY CO ARPT CLEAR     27  21  78 CALM      30.52S
MAXWELL AFB    CLEAR     29  22  74 CALM      30.51S
GREENVILLE     FAIR      30  19  63 NE3       30.48F
$$

ALZ019-021-028-029-037-038-045>048-101100-
EAST CENTRAL ALABAMA

CITY           SKY/WX    TMP DP  RH WIND       PRES   REMARKS
ANNISTON       PTCLDY    22  19  89 W3        30.53S
ALEXANDER CITY PTCLDY    32  24  72 CALM      30.49S
AUBURN         CLEAR     28  20  71 NE7       30.49F WCI  21
$$

ALZ051>064-101100-
SOUTHWEST ALABAMA

CITY           SKY/WX    TMP DP  RH WIND       PRES   REMARKS
MOBILE         PTCLDY    30  21  69 N6        30.52S WCI  24
BROOKLEY FIELD CLEAR     34  25  69 N7        30.54S WCI  28
EVERGREEN      CLEAR     28  22  78 CALM      30.51S
$$

ALZ049-050-065>069-101100-
SOUTHEAST ALABAMA

CITY           SKY/WX    TMP DP  RH WIND       PRES   REMARKS
DOTHAN         PTCLDY    31  23  72 N7        30.51F WCI  24
OZARK          PTCLDY    29  20  67 N5        30.49F WCI  24
TROY           CLEAR     25  22  88 CALM      30.51S
EUFAULA        FAIR      28  23  81 CALM      30.50S
$$




USA.gov is the U.S. government's official web portal to all federal, state and local government web resources and services.